CanjetBLOCKVirtuelBLOCKQcBLOCKBLOCKBLOCKBLOCKBLOCKBLOCKBLOCKBLOCKBLOCKBLOCKBLOCKvolsBLOCKavecBLOCKFS-kACARS2021-10-16BLOCK11colon13am

volsBLOCKBLOCKBLOCKBLOCKBLOCKpilotesBLOCKBLOCKBLOCKBLOCKBLOCKBLOCKBLOCKBLOCKtypeBLOCKBLOCKdepBLOCKBLOCKarrBLOCKBLOCKBLOCKBLOCKBLOCKaltBLOCKBLOCKBLOCKBLOCKBLOCKgsBLOCKBLOCKBLOCKBLOCKstatut

aucunBLOCKvolsBLOCKenBLOCKceBLOCKmomentBLOCKavecBLOCKFS-KACARSBLOCK













BLOCKAppuyerBLOCKsurBLOCKF5BLOCKpourBLOCKactualiserBLOCKBLOCKBLOCKMiseBLOCKaBLOCKjourcolonBLOCK11colon13colon27amCanjetBLOCKvirtuelBLOCKQC

Bienvenue chez Canjetvirtuel-Q

Publié par Michel Ayotte le 2013-06-14

 

Canjetvirtuel-Québec est une compagnie aérienne virtuelle qui a été fondée par 2 passionnés de la simulation de vol.

Elle est opérée avec les Boeing 737. Exceptionnelement et pour votre plaisir tous les autres versions de Boeing et Airbus sont autorisées.

Ces appareils pouvant faire des vols cargos ou des vols passagers, que ce soit au Canada, Europe, États-Unis, Mexique, Caraïbes et autres destinations mondiales.

Vous trouverez votre place comme pilote chez nous!



Avis

Aux fins de la simulation de vol seulement. CanjetVirtuel Québec n'est en aucun cas affilié avec n'importe quelle compagnie aérienne du monde réel. CanjetVirtuel Québec est un site à but non lucratif gérée par des amateurs de simulation de vol. Toutes les images sont la propriété exclusive de leurs propriétaires respectifs.
| propulsé par phpVMS, © 2013-2020.

Notice

For flight simulation purposes only. CanjetVirtuel Quebec is in no way affiliated with any real world airline. CanjetVirtuel Quebec is a non-profit site run by flight simulation enthusiasts. All images are the sole property of their respective owners.
| powered by phpVMS, © 2013-2020.

Affiliations

Vatsim

Les statistiques du site

Nombre de pilotes: 15
Total des vols effectués: 8286
Trajets disponibles: 736
Passagers transportés: 2083242
Total des heures de vol: 28196
Distance totale (NM): 11045075
Pilotes en ligne: 0

Nouvelles

Bienvenue chez Canjetvirtuel-Q
06/14/2013

METAR

CYHZ 161400Z 22005KT 15SM FEW005 FEW035 SCT080 BKN240 15/08 A2998 RMK CF1SC1AC3CC2 CF TR SLP157 DENSITY ALT 500FT

CYQB 161400Z 08012G19KT 6SM BR OVC004 13/13 A2968 RMK ST8 SLP052 DENSITY ALT 400FT

CYUL 161450Z 15014KT 15SM -RA SCT045 BKN070 OVC120 20/19 A2950 RMK SC3AC3AC2 SLP990 DENSITY ALT 1300FT

CYYZ 161444Z 28012KT 15SM -SHRA SCT026 BKN058 OVC140 14/12 A2963 RMK SC3SC3AC2 CVCTV CLD EMBD SLP037 DENSITY ALT 900FT